Mura





Hora UTC 19:55
Temperatura 20.9 ºC
Humitat 72.0 %
Pressió 1012.5 hPa
Pluja 0.2 mm
Velocitat vent 0.0 km/h
Direcció vent

Dades diàries 2022-08-19



Hora UTC (hivern +1h; estiu +2h)
Temperatura (ºC) Humitat (%) Pressió (hPa) Velocitat vent (km/h) Precipitació (mm)
Hora UTC Aire Humitat Pressió Vel. Dir. Vel. Max Dir. Intent. màx 5 min.
00:05 13.1 75.0 1011.1 0.0 0.0 0.0
00:15 12.8 76.0 1011.2 0.0 0.0 0.0
00:25 12.9 75.0 1011.2 0.0 0.0 0.0
00:35 12.8 76.0 1011.2 0.0 0.0 0.0
00:45 12.7 76.0 1011.1 0.0 4.8 0.2
00:55 12.7 75.0 1011.1 0.0 4.8 0.0
01:05 12.8 75.0 1011.1 0.0 4.8 0.0
01:15 12.7 75.0 1011.0 0.0 4.8 0.0
01:25 12.7 75.0 1011.1 0.0 4.8 0.0
01:35 12.7 75.0 1011.1 0.0 4.8 0.0
01:45 12.6 75.0 1011.1 0.0 4.8 0.0
01:55 12.6 75.0 1011.2 0.0 4.8 0.0
02:05 12.4 75.0 1011.2 0.0 4.8 0.0
02:15 12.6 75.0 1011.2 0.0 4.8 0.0
02:25 12.4 75.0 1011.2 0.0 4.8 0.0
02:35 12.4 75.0 1011.2 0.0 4.8 0.0
02:45 12.4 75.0 1011.3 0.0 4.8 0.0
02:55 12.4 74.0 1011.2 0.0 4.8 0.0
03:05 12.4 75.0 1011.2 0.0 4.8 0.0
03:15 12.4 74.0 1011.3 0.0 4.8 0.0
03:25 12.3 75.0 1011.4 0.0 4.8 0.0
03:35 12.3 75.0 1011.4 0.0 4.8 0.0
03:45 12.2 75.0 1011.7 0.0 4.8 0.0
03:55 12.1 75.0 1011.6 0.0 4.8 0.0
04:05 11.9 75.0 1011.6 0.0 4.8 0.0
04:15 12.0 74.0 1011.8 0.0 4.8 0.0
04:25 11.9 75.0 1011.8 0.0 4.8 0.0
04:35 11.9 75.0 1011.8 0.0 4.8 0.0
04:45 11.8 75.0 1011.9 0.0 4.8 0.0
04:55 11.8 75.0 1011.9 0.0 4.8 0.0
05:05 11.7 75.0 1011.9 0.0 4.8 0.0
05:15 11.7 75.0 1012.1 0.0 4.8 0.0
05:25 11.7 75.0 1012.3 0.0 4.8 0.0
05:35 11.7 74.0 1012.3 0.0 4.8 0.0
05:45 11.7 75.0 1012.5 0.0 4.8 0.0
05:55 11.9 74.0 1012.6 0.0 4.8 0.0
06:05 12.3 74.0 1012.6 0.0 4.8 0.0
06:15 12.8 74.0 1012.9 0.0 4.8 0.0
06:25 13.1 74.0 1013.0 0.0 4.8 0.0
06:35 13.3 74.0 1013.0 0.0 4.8 0.0
06:45 13.6 74.0 1013.0 1.6 4.8 0.0
06:55 14.2 73.0 1012.9 0.0 4.8 0.0
07:05 14.9 73.0 1012.9 0.0 4.8 0.0
07:15 15.3 73.0 1013.0 0.0 4.8 0.0
07:25 15.8 74.0 1013.1 0.0 4.8 0.0
07:35 16.1 76.0 1013.1 0.0 4.8 0.0
07:45 16.1 80.0 1013.2 0.0 4.8 0.0
07:55 17.0 80.0 1013.2 0.0 4.8 0.0
08:05 17.1 81.0 1013.2 0.0 6.4 0.0
08:15 17.3 80.0 1013.3 1.6 8.0 0.0
08:25 17.3 79.0 1013.4 3.2 8.0 0.0
08:35 17.6 79.0 1013.4 1.6 8.0 0.0
08:45 18.2 78.0 1013.2 0.0 8.0 0.0
08:55 18.6 77.0 1013.3 0.0 8.0 0.0
09:05 19.1 75.0 1013.3 0.0 8.0 0.0
09:15 19.4 74.0 1013.1 0.0 8.0 0.0
09:25 19.4 73.0 1013.4 4.8 11.3 0.0
09:35 19.5 75.0 1013.4 3.2 14.5 0.0
09:45 19.6 72.0 1013.3 1.6 14.5 0.0
09:55 19.9 71.0 1013.2 1.6 14.5 0.0
10:05 20.1 70.0 1013.2 6.4 14.5 0.0
10:15 20.3 69.0 1013.4 6.4 14.5 0.0
10:25 20.7 68.0 1012.9 1.6 14.5 0.0
10:35 21.2 68.0 1012.9 1.6 14.5 0.0
10:45 21.4 64.0 1012.9 3.2 14.5 0.0
10:55 21.7 62.0 1012.9 3.2 14.5 0.0
11:05 22.1 60.0 1012.9 1.6 14.5 0.0
11:15 22.5 62.0 1012.8 3.2 14.5 0.0
11:25 22.8 59.0 1012.7 0.0 14.5 0.0
11:35 23.3 58.0 1012.7 3.2 14.5 0.0
11:45 23.6 55.0 1012.5 3.2 14.5 0.0
11:55 23.9 57.0 1012.3 0.0 14.5 0.0
12:05 24.3 52.0 1012.3 3.2 14.5 0.0
12:15 24.8 48.0 1012.3 1.6 14.5 0.0
12:25 24.9 43.0 1012.3 3.2 14.5 0.0
12:35 25.3 46.0 1012.3 0.0 14.5 0.0
12:45 25.7 44.0 1012.1 3.2 14.5 0.0
12:55 26.2 44.0 1011.9 1.6 14.5 0.0
13:05 26.4 42.0 1011.9 1.6 14.5 0.0
13:15 26.8 41.0 1011.9 1.6 14.5 0.0
13:25 27.0 39.0 1011.8 1.6 14.5 0.0
13:35 26.8 38.0 1011.8 0.0 14.5 0.0
13:45 26.7 40.0 1011.7 1.6 14.5 0.0
13:55 27.3 39.0 1011.6 1.6 14.5 0.0
14:05 27.6 38.0 1011.6 6.4 19.3 0.0
14:15 27.6 38.0 1011.5 3.2 19.3 0.0
14:25 27.8 38.0 1011.3 3.2 19.3 0.0
14:35 27.7 38.0 1011.3 6.4 22.5 0.0
14:45 27.4 39.0 1011.3 4.8 22.5 0.0
14:55 27.6 40.0 1011.2 4.8 22.5 0.0
15:05 28.1 38.0 1011.2 3.2 22.5 0.0
15:15 28.2 38.0 1011.1 1.6 22.5 0.0
15:25 28.3 37.0 1011.1 4.8 22.5 0.0
15:35 27.6 45.0 1011.1 3.2 22.5 0.0
15:45 27.2 47.0 1011.0 6.4 22.5 0.0
15:55 26.9 49.0 1010.9 4.8 22.5 0.0
16:05 26.7 50.0 1010.9 4.8 22.5 0.0
16:15 26.9 50.0 1011.0 1.6 22.5 0.0
16:25 26.5 50.0 1010.9 6.4 22.5 0.0
16:35 26.2 52.0 1010.9 11.3 24.1 0.0
16:45 26.1 52.0 1011.0 4.8 24.1 0.0
16:55 25.9 53.0 1011.0 6.4 24.1 0.0
17:05 25.5 56.0 1011.0 11.3 24.1 0.0
17:15 25.0 58.0 1010.9 12.9 24.1 0.0
17:25 24.6 59.0 1010.9 9.7 24.1 0.0
17:35 24.3 60.0 1010.9 6.4 24.1 0.0
17:45 24.2 61.0 1010.9 6.4 24.1 0.0
17:55 23.8 63.0 1010.9 4.8 24.1 0.0
18:05 23.5 64.0 1010.9 6.4 24.1 0.0
18:15 23.4 65.0 1011.2 4.8 24.1 0.0
18:25 23.1 65.0 1011.3 1.6 24.1 0.0
18:35 22.9 66.0 1011.3 1.6 24.1 0.0
18:45 22.7 67.0 1011.4 3.2 24.1 0.0
18:55 22.4 68.0 1011.8 1.6 24.1 0.0
19:05 22.1 69.0 1011.8 3.2 24.1 0.0
19:15 21.8 70.0 1011.9 3.2 24.1 0.0
19:25 21.7 70.0 1012.0 1.6 24.1 0.0
19:35 21.4 77.0 1012.0 1.6 24.1 0.0
19:45 21.1 72.0 1012.1 0.0 24.1 0.0
19:55 20.9 72.0 1012.5 0.0 24.1 0.0
Màxima 28.4 81.0 1013.4 12.9 24.1 0.2
Mínima 11.6 37.0 1010.9
Total 0.2